Location: Newark
(29.9790°N, 31.1340°E)
Time: 08:35:37
(UTC+00:00)

A-11 Canister half - All Passes

Search period start: 20 January 2020 00:00
Search period end: 30 January 2020 00:00
Orbit: 1516 x 1683 km, 47.2° (Epoch: 19 January)

Date Brightness Start Highest point End Pass type
(mag) Time Alt. Az. Time Alt. Az. Time Alt. Az.
20 Jan - 00:43:36 10° WNW 00:51:28 30° NNW 00:59:19 10° NE visible
20 Jan - 02:51:17 10° NW 02:59:06 29° NNE 03:06:59 10° ENE visible
20 Jan - 04:56:19 10° NW 05:05:33 64° NE 05:15:02 10° ESE daylight
20 Jan - 07:01:42 10° WNW 07:10:09 39° SW 07:18:50 10° SSE daylight
20 Jan - 20:09:32 10° S 20:17:45 33° SE 20:25:46 10° ENE night (unlit)
20 Jan - 22:12:44 10° WSW 22:22:09 71° NW 22:31:24 10° NE night (unlit)
21 Jan - 00:20:27 10° WNW 00:28:25 31° NNW 00:36:21 10° NE visible
21 Jan - 02:28:18 10° NW 02:36:03 29° NNE 02:43:51 10° ENE visible
21 Jan - 04:33:27 10° NW 04:42:37 61° NE 04:52:00 10° ESE daylight
21 Jan - 06:38:42 10° WNW 06:47:17 42° SW 06:56:07 10° SSE daylight
21 Jan - 19:46:54 10° S 19:54:54 31° SE 20:02:41 10° ENE night (unlit)
21 Jan - 21:49:45 10° WSW 21:59:14 75° NW 22:08:31 10° NE night (unlit)
21 Jan - 23:57:20 10° WNW 00:05:23 32° NNW 00:13:24 10° NE visible
22 Jan - 02:05:19 10° NW 02:12:59 28° N 02:20:43 10° ENE visible
22 Jan - 04:10:33 10° NW 04:19:40 57° NNE 04:28:58 10° ESE visible
22 Jan - 06:15:42 10° WNW 06:24:25 45° SW 06:33:22 10° SSE daylight
22 Jan - 19:24:17 10° S 19:32:03 28° SE 19:39:36 10° ENE visible
22 Jan - 21:26:47 10° SW 21:36:18 79° NW 21:45:38 10° NE night (unlit)
22 Jan - 23:34:12 10° W 23:42:21 33° NNW 23:50:27 10° NE visible
23 Jan - 01:42:19 10° NW 01:49:56 28° N 01:57:36 10° ENE visible
23 Jan - 03:47:40 10° NW 03:56:43 54° NNE 04:05:56 10° ESE visible
23 Jan - 05:52:44 10° WNW 06:01:32 49° SW 06:10:37 10° SSE daylight
23 Jan - 19:01:42 10° S 19:09:12 26° SE 19:16:29 10° ENE visible
23 Jan - 21:03:50 10° SW 21:13:24 84° NW 21:22:44 10° NE night (unlit)
23 Jan - 23:11:04 10° W 23:19:20 34° NNW 23:27:32 10° NE visible
24 Jan - 01:19:18 10° NW 01:26:53 27° N 01:34:29 10° ENE visible
24 Jan - 03:24:47 10° NW 03:33:45 52° NNE 03:42:52 10° ESE visible
24 Jan - 05:29:46 10° WNW 05:38:40 52° SW 05:47:50 10° SSE daylight
24 Jan - 18:39:10 10° S 18:46:20 24° SE 18:53:20 10° ENE visible
24 Jan - 20:40:53 10° SW 20:50:29 88° NW 20:59:50 10° NE night (unlit)
24 Jan - 22:47:56 10° W 22:56:19 35° NNW 23:04:36 10° NE night (unlit)
25 Jan - 00:56:17 10° NW 01:03:50 27° N 01:11:22 10° ENE visible
25 Jan - 03:01:53 10° NW 03:10:48 49° NNE 03:19:48 10° ESE visible
25 Jan - 05:06:48 10° WNW 05:15:48 56° SW 05:25:02 10° SSE daylight
25 Jan - 18:16:40 10° S 18:23:29 22° SE 18:30:09 10° E visible
25 Jan - 20:17:57 10° SW 20:27:35 87° SE 20:36:56 10° NE visible
25 Jan - 22:24:49 10° W 22:33:18 36° NNW 22:41:41 10° NE night (unlit)
26 Jan - 00:33:15 10° NW 00:40:46 27° N 00:48:16 10° ENE visible
26 Jan - 02:39:00 10° NW 02:47:49 47° NNE 02:56:44 10° E visible
26 Jan - 04:43:51 10° WNW 04:52:56 60° SW 05:02:13 10° SSE daylight
26 Jan - 06:54:06 10° WSW 06:56:40 11° WSW 06:59:17 10° SW daylight
26 Jan - 17:54:14 10° SSE 18:00:38 20° SE 18:06:55 10° E visible
26 Jan - 19:55:02 10° SW 20:04:40 82° SE 20:14:02 10° NE visible
26 Jan - 22:01:42 10° W 22:10:18 38° NNW 22:18:46 10° NE night (unlit)
27 Jan - 00:10:11 10° NW 00:17:43 26° N 00:25:11 10° ENE visible
27 Jan - 02:16:06 10° NW 02:24:51 44° NNE 02:33:40 10° E visible
27 Jan - 04:20:56 10° NW 04:30:03 65° SW 04:39:23 10° SSE visible
27 Jan - 06:30:07 10° W 06:33:50 13° WSW 06:37:37 10° SSW daylight
27 Jan - 17:31:51 10° SSE 17:37:47 18° SE 17:43:36 10° E visible
27 Jan - 19:32:08 10° SW 19:41:47 77° SE 19:51:07 10° NE visible
27 Jan - 21:38:34 10° W 21:47:18 40° NNW 21:55:52 10° NE night (unlit)
27 Jan - 23:47:07 10° NW 23:54:38 26° N 00:02:07 10° NE visible
28 Jan - 01:53:12 10° NW 02:01:52 42° NNE 02:10:35 10° E visible
28 Jan - 03:58:00 10° NW 04:07:10 69° SW 04:16:32 10° SE visible
28 Jan - 06:06:28 10° W 06:11:00 15° WSW 06:15:36 10° SSW daylight
28 Jan - 17:09:33 10° SSE 17:14:57 16° SE 17:20:14 10° E visible
28 Jan - 19:09:14 10° SW 19:18:52 73° SE 19:28:13 10° NE visible
28 Jan - 21:15:27 10° W 21:24:17 41° NNW 21:32:57 10° NE night (unlit)
28 Jan - 23:24:03 10° NW 23:31:34 26° N 23:39:03 10° NE visible
29 Jan - 01:30:17 10° NW 01:38:53 40° NNE 01:47:30 10° E visible
29 Jan - 03:35:04 10° NW 03:44:17 74° SW 03:53:41 10° SE visible
29 Jan - 05:42:59 10° W 05:48:10 16° SW 05:53:25 10° SSW daylight
29 Jan - 16:47:22 10° SSE 16:52:06 15° ESE 16:56:44 10° E visible
29 Jan - 18:46:23 10° SW 18:55:59 68° SE 19:05:17 10° NE visible
29 Jan - 20:52:21 10° W 21:01:18 43° NNW 21:10:04 10° NE visible
29 Jan - 23:00:58 10° WNW 23:08:31 26° N 23:16:00 10° NE visible
